Theta_e
314 314 315 317 320 322 324 325 327 326 323 319 319 319 317 320 321 320 320 320 320 319 319 320 320 319 320 319 320 320 320 320 320 323 327 326 320 319 319 319 320 320 325 327 329 331 331 333 334 338 339 340 340 340 339 338 337 334 334 332 331 332 331 328 323 318 316 316 316 318 325 329 329 330 329 330 331 330 328 328 330 331 333 332 331 330 328 327 325 324 323 322 322 321 321 321 320
315 315 316 320 322 325 327 325 326 324 320 318 318 317 318 320 320 319 319 319 320 319 320 319 320 319 320 320 320 320 320 322 321 323 325 326 325 320 318 319 319 323 331 332 332 331 330 332 334 337 339 340 339 339 339 338 338 336 334 333 333 332 330 328 322 317 315 315 316 317 321 325 326 327 328 329 331 330 329 329 330 331 334 334 333 331 328 326 324 324 324 325 325 325 325 323 322
317 317 320 323 325 325 327 325 324 321 319 317 316 318 319 320 318 319 318 319 319 319 320 319 320 319 320 321 320 321 320 323 323 323 323 324 325 319 318 319 319 327 335 336 333 331 331 333 335 338 339 340 340 339 339 339 338 336 335 334 333 332 330 327 320 317 316 316 317 318 320 323 323 324 327 328 330 330 329 329 329 332 335 335 335 332 329 328 328 328 328 329 328 326 324 323 323
318 319 322 324 327 326 327 327 326 322 318 316 316 320 319 319 318 318 318 318 319 319 319 320 319 319 320 320 320 321 320 322 322 323 321 319 318 317 319 318 319 326 336 340 335 329 332 336 336 337 338 339 339 339 338 339 338 336 335 334 333 331 330 327 320 317 316 317 318 318 320 323 323 324 326 327 329 329 329 329 329 332 335 335 335 333 332 332 330 329 328 325 322 318 315 313 313
318 320 320 323 328 327 326 326 324 322 319 318 317 320 319 318 318 317 318 318 318 318 319 319 319 318 319 319 320 320 319 322 321 320 320 318 317 317 318 318 318 322 332 341 338 329 331 337 337 337 337 339 339 338 337 338 337 336 334 333 331 331 330 328 321 316 316 318 319 319 323 326 325 325 325 326 328 329 330 331 330 331 333 335 335 334 334 332 330 327 323 318 315 311 308 307 307
319 320 320 322 326 324 325 323 321 321 320 320 318 319 319 318 318 317 317 317 317 317 318 318 318 318 319 319 318 318 318 320 320 319 319 319 317 316 318 318 318 319 327 339 341 333 332 336 337 336 336 338 338 337 337 336 336 334 334 332 330 330 329 329 324 317 316 318 319 323 328 330 328 326 325 327 328 330 331 331 332 331 331 334 334 334 334 333 331 326 319 314 313 310 306 305 305
319 323 323 324 325 323 326 324 321 321 320 321 319 319 319 318 318 318 318 318 317 316 317 318 318 318 319 319 318 316 316 317 318 317 319 319 317 316 317 318 319 319 326 338 340 336 334 334 335 335 336 337 338 337 337 336 335 334 334 332 329 329 329 330 327 318 317 319 321 326 330 329 329 327 326 328 329 329 331 331 333 332 331 333 333 333 333 332 330 323 317 315 314 310 305 305 305
319 323 322 325 328 324 326 325 322 322 320 320 319 319 318 318 319 318 318 317 317 317 317 317 317 317 317 320 319 316 315 315 315 315 317 318 316 316 316 318 320 321 329 335 335 333 331 330 332 334 336 337 337 337 337 336 335 334 334 333 330 329 329 331 329 321 318 320 323 328 329 328 329 327 328 329 328 329 331 331 332 332 331 332 332 332 330 329 325 320 318 319 317 312 306 304 305
320 322 321 325 328 323 323 323 322 321 320 320 318 318 318 318 319 318 318 317 317 318 317 317 317 317 318 319 318 316 315 315 314 314 315 316 316 316 316 317 318 322 330 333 330 331 327 325 330 333 335 336 336 336 336 337 336 334 334 333 330 328 329 330 331 326 321 322 324 329 329 328 329 329 329 329 329 330 331 332 333 332 332 331 331 330 327 325 322 320 321 321 321 315 307 304 304
321 321 321 324 325 321 320 321 322 321 320 319 318 318 318 318 318 318 318 318 317 318 317 317 318 316 317 319 317 315 315 315 314 314 314 315 315 315 316 316 317 318 325 330 327 326 324 323 327 332 334 335 336 336 335 337 335 334 333 332 330 327 328 330 332 329 323 322 325 329 329 328 329 330 330 330 330 331 331 332 334 333 332 332 330 328 326 325 325 325 325 324 323 317 308 304 304
322 320 318 322 322 319 319 321 322 322 320 319 319 318 318 318 318 318 318 318 318 318 317 317 318 316 317 318 316 315 314 314 314 314 314 314 315 315 315 315 317 316 320 325 322 319 320 321 324 329 332 334 335 336 335 336 335 335 334 332 330 329 328 330 332 330 324 322 325 328 328 328 329 329 330 330 330 330 331 332 333 334 333 332 330 329 328 328 328 328 327 325 323 319 310 305 304
323 322 319 320 322 321 321 322 322 321 320 319 318 318 317 318 318 318 318 318 318 318 317 317 317 316 317 318 315 315 314 314 314 314 314 314 315 314 315 315 315 316 317 320 320 317 317 319 322 325 328 331 333 334 335 335 334 334 335 333 331 330 328 329 331 331 326 324 325 327 328 329 329 329 329 330 328 328 330 331 332 333 333 333 331 331 330 329 328 327 326 324 324 319 311 306 304
322 322 321 321 322 323 320 322 323 322 321 319 318 317 317 317 317 318 318 318 318 317 316 316 317 316 317 318 316 315 315 314 314 314 314 314 314 314 315 315 315 316 316 317 319 318 316 317 319 322 325 328 330 332 334 335 334 333 334 334 332 330 329 329 330 330 329 326 327 327 327 329 329 330 330 329 329 329 329 331 332 333 332 333 332 331 328 327 326 325 324 322 322 319 312 307 304
322 320 321 323 322 321 320 322 322 321 320 318 318 317 317 317 317 317 318 318 317 317 316 316 317 317 317 317 317 316 315 314 314 314 314 314 314 314 314 315 315 315 316 316 317 318 317 316 317 320 322 326 328 330 332 334 333 333 333 334 333 331 330 328 328 329 329 328 328 326 325 328 330 329 328 329 329 330 329 329 330 331 332 333 331 329 326 325 324 323 322 320 321 319 312 308 304
320 318 321 323 320 319 320 323 322 320 319 318 318 317 317 317 317 317 317 317 317 317 316 317 317 316 317 317 317 315 314 314 314 314 314 314 314 314 314 315 315 315 315 316 316 316 317 316 316 317 319 322 325 327 329 330 331 332 333 334 333 332 330 329 328 328 328 328 328 326 325 325 327 327 328 329 329 330 329 329 329 330 331 331 329 327 326 325 324 322 322 320 320 318 313 309 305
316 318 324 322 319 319 318 321 320 320 319 318 317 317 317 317 317 317 317 316 317 317 316 317 316 316 316 316 315 314 314 314 314 314 314 314 315 315 314 314 316 315 315 315 316 315 316 316 316 316 316 320 325 328 329 329 329 330 332 333 333 332 330 330 329 328 327 327 327 327 326 324 324 325 326 327 328 329 329 329 329 329 329 328 328 327 326 325 324 323 322 321 319 317 314 309 304
315 320 323 321 320 319 318 319 320 319 319 318 317 318 318 317 317 317 317 316 316 317 316 316 316 315 315 314 313 313 314 314 314 314 313 315 318 319 317 316 317 316 316 315 315 315 315 316 316 316 315 320 328 332 332 331 331 331 331 331 331 331 331 331 330 329 327 326 325 326 326 325 324 324 326 326 327 328 328 328 329 330 330 329 328 327 327 326 325 323 322 319 317 316 313 309 305
320 325 323 320 321 318 318 320 320 320 319 318 317 317 318 318 317 317 317 316 317 317 316 316 315 314 314 313 313 313 314 313 313 314 313 315 319 320 318 317 316 316 316 316 315 315 315 315 316 316 316 317 326 332 333 332 333 334 333 331 330 330 332 332 331 330 329 327 325 325 326 327 326 326 327 328 328 327 327 328 328 330 331 329 328 328 328 327 325 324 322 318 314 314 313 310 307
320 325 321 320 320 317 318 319 319 319 319 318 318 317 317 317 317 317 316 317 317 317 316 315 315 315 315 314 313 313 313 314 313 314 313 314 316 317 316 315 315 314 315 315 316 315 315 315 315 316 317 316 320 328 332 332 333 335 335 333 331 330 331 331 330 330 329 329 328 327 326 327 328 328 329 330 330 328 328 328 327 328 329 328 327 329 328 327 326 325 324 320 316 313 312 311 309
319 321 321 320 318 317 317 318 318 318 318 318 318 317 316 317 317 316 316 317 317 316 316 316 316 316 315 314 313 313 313 313 313 314 314 313 313 314 314 313 313 313 314 314 314 315 315 315 315 314 316 316 318 322 328 331 332 333 334 333 333 331 331 330 330 330 330 331 331 330 328 328 330 330 330 331 330 329 329 328 328 328 328 327 327 328 328 327 327 326 326 324 321 318 316 315 313
318 319 320 319 316 317 317 317 318 317 318 318 317 316 316 317 316 316 316 317 317 315 315 315 316 315 314 314 313 313 313 313 313 314 313 313 313 313 314 313 314 313 313 314 313 313 314 315 315 315 315 315 318 320 324 330 331 332 332 332 333 333 332 332 331 331 331 332 332 331 331 331 332 331 330 330 329 329 329 328 329 329 328 327 327 328 327 328 328 327 327 325 324 324 322 321 319
317 318 319 318 317 318 317 317 317 316 316 316 317 316 317 317 316 316 316 317 317 315 314 313 313 313 313 312 312 312 313 313 313 313 314 314 314 314 314 314 314 315 314 314 313 313 313 314 314 315 316 315 319 322 324 329 330 330 331 332 332 333 333 333 333 333 333 333 332 332 332 333 332 331 331 331 330 329 329 328 329 329 328 328 329 328 327 327 327 327 327 326 325 325 324 322 320
318 318 318 318 318 318 318 317 316 316 316 316 317 316 317 316 316 317 316 317 317 315 314 312 312 312 311 311 312 312 312 313 313 313 314 314 314 314 314 314 315 315 315 315 314 315 313 314 314 314 316 316 319 322 325 329 330 330 331 331 332 333 333 333 333 333 333 333 333 332 333 333 332 332 332 332 331 331 330 330 329 330 330 330 329 328 327 327 327 327 327 326 325 324 323 321 319
317 318 318 318 317 318 318 318 316 315 316 316 317 316 316 316 316 316 316 316 315 314 313 312 311 311 311 312 312 312 312 313 313 313 313 314 314 314 314 314 314 314 314 315 314 315 314 314 314 313 314 315 318 321 324 328 330 331 331 331 332 332 333 333 333 333 333 333 332 332 332 332 332 332 332 332 332 332 331 331 331 331 331 330 329 328 328 328 328 327 327 326 325 324 323 321 320
317 318 318 318 317 317 317 317 316 315 316 316 316 316 316 316 316 315 315 314 314 313 312 311 311 311 311 312 312 312 312 312 313 313 313 314 314 314 314 314 314 314 314 314 314 314 314 314 314 314 314 316 321 322 324 328 329 330 331 330 330 331 332 332 333 333 332 332 331 331 332 333 332 332 332 332 332 332 332 331 330 331 330 330 329 327 328 328 327 327 327 325 324 324 322 321 320
317 317 317 317 317 317 317 317 316 316 316 316 316 315 316 316 316 315 315 314 314 312 311 311 312 311 311 312 312 312 312 312 313 313 313 314 314 314 314 314 313 313 314 314 314 314 314 314 314 314 315 320 326 326 326 329 329 329 331 331 330 330 331 332 332 332 331 332 331 330 332 332 332 331 331 331 332 332 331 330 330 330 330 330 329 328 328 327 327 327 325 324 324 323 321 320 319
316 317 316 317 317 317 317 317 317 317 316 316 315 315 316 315 315 316 314 314 313 311 311 311 312 312 311 311 311 312 312 312 312 313 313 313 314 314 313 313 313 313 314 314 315 315 315 314 314 314 316 321 326 328 327 329 329 329 331 331 331 330 330 330 331 331 330 329 329 329 330 331 331 332 331 331 331 331 330 330 329 329 329 330 329 328 328 327 326 325 324 323 323 321 320 319 319
316 316 316 316 317 317 317 317 317 317 316 316 315 315 315 314 315 315 314 313 311 311 311 311 312 312 311 311 311 311 311 312 312 312 313 313 313 313 313 313 313 313 314 315 315 315 315 315 314 314 316 319 324 327 327 328 330 329 331 331 330 331 329 329 330 330 329 329 329 328 328 329 329 330 330 331 331 331 331 330 329 329 329 329 328 327 327 325 325 323 323 322 321 320 319 319 319
316 316 316 317 317 317 317 317 317 317 316 316 315 316 316 314 314 314 313 312 311 312 312 312 312 312 311 311 311 311 311 312 312 312 312 312 312 312 312 312 313 313 314 315 316 316 316 315 315 315 317 320 323 327 328 328 329 329 330 330 329 329 328 327 328 329 329 329 329 327 326 326 326 327 329 330 330 331 330 329 329 329 328 328 327 327 325 324 323 322 322 321 320 319 319 319 318
316 316 316 317 318 319 319 317 317 316 316 315 315 317 319 315 313 313 312 312 312 313 313 312 312 312 311 311 311 311 311 311 311 312 312 312 312 312 312 312 312 313 314 316 316 317 317 316 317 318 320 323 324 326 328 328 329 329 329 328 329 330 328 328 328 327 328 329 328 327 327 326 325 326 327 328 329 329 329 328 328 328 328 327 326 325 323 323 322 321 321 320 320 319 319 319 318
316 317 318 319 319 319 318 317 316 315 315 314 315 318 320 316 313 312 312 312 312 313 313 313 312 311 311 311 311 311 310 311 311 311 311 311 311 311 311 311 312 313 315 317 317 318 320 319 319 320 321 323 325 326 326 327 328 327 327 328 329 330 329 329 328 327 327 328 327 327 326 325 324 324 325 326 327 328 328 328 327 327 326 326 324 323 322 321 321 321 321 320 319 319 319 319 317
317 318 320 320 320 319 318 316 316 316 315 314 315 318 319 315 313 312 312 312 313 314 314 313 312 312 311 311 310 310 310 311 311 311 311 311 311 311 311 312 312 314 315 318 319 319 321 321 320 323 323 322 325 327 325 327 328 326 326 327 327 328 328 328 327 327 326 325 324 323 322 322 323 324 324 325 326 326 326 327 326 326 325 324 323 322 321 321 321 321 321 320 319 319 318 317 316
320 320 321 321 321 320 318 316 316 316 314 313 315 318 318 316 314 312 312 312 313 314 314 313 313 312 311 311 310 310 310 310 310 310 310 310 311 310 311 312 313 315 315 318 320 318 320 322 322 323 326 325 325 325 326 328 328 325 326 326 327 327 326 326 326 325 324 323 322 321 321 322 322 324 324 324 325 325 325 325 325 324 324 323 322 322 322 321 321 321 320 319 318 317 316 316 315
322 321 321 321 322 320 319 318 317 317 315 315 315 316 317 317 314 313 312 312 313 314 314 313 313 312 311 311 310 310 310 309 309 310 310 310 310 309 310 311 313 315 317 319 321 320 320 322 323 323 324 326 326 325 326 327 326 326 326 325 325 325 324 324 324 323 323 322 321 321 322 322 322 322 323 323 324 324 324 324 324 323 322 322 322 322 321 320 320 319 318 317 316 315 313 312 310
323 323 322 322 322 321 320 319 317 316 316 316 317 316 317 317 314 313 312 312 312 313 314 314 312 311 311 310 310 310 309 309 309 309 310 309 310 309 309 312 313 316 318 319 321 322 322 321 322 324 323 324 325 325 325 325 325 325 325 324 324 323 323 322 321 321 321 321 321 321 321 322 322 322 322 322 322 323 323 322 321 321 320 320 320 320 319 319 318 316 316 313 311 309 307 306 305
322 323 322 322 322 322 321 318 316 316 317 317 318 318 318 318 315 313 313 312 313 313 314 314 312 311 311 310 310 309 309 309 309 309 309 309 310 308 309 313 315 315 317 318 318 320 322 321 321 323 323 323 323 323 323 324 324 324 323 323 322 322 321 320 319 320 320 320 320 319 319 320 320 320 320 320 321 321 320 320 320 319 318 318 317 317 315 314 312 311 310 308 305 304 304 304 304
320 321 322 322 322 321 320 318 316 316 318 319 319 320 320 320 317 314 313 313 313 314 314 313 312 311 310 310 309 309 308 308 309 309 308 309 309 308 311 316 317 316 317 318 318 319 320 321 322 322 322 322 322 322 322 322 322 322 322 321 321 320 320 319 318 318 318 318 317 317 318 318 318 318 318 318 318 318 318 317 316 315 314 312 311 310 308 307 306 305 305 305 303 302 303 302 302
320 321 321 322 322 322 321 318 316 316 318 319 319 320 319 320 320 315 312 313 312 313 314 312 312 311 310 310 309 309 308 308 308 308 308 309 309 309 312 316 317 318 319 319 319 318 319 320 320 321 321 320 321 321 321 321 321 320 320 320 319 318 318 317 316 315 314 314 314 314 314 313 313 313 313 312 312 312 312 311 309 308 306 305 304 303 303 302 302 301 301 301 301 301 301 300 300
321 321 321 322 322 322 321 318 316 315 318 320 319 320 319 319 321 316 312 312 313 313 314 313 312 311 310 310 309 308 308 307 307 307 308 308 309 310 312 314 316 316 317 318 317 317 318 319 318 318 318 318 318 318 318 318 318 318 317 317 316 315 314 312 311 309 309 309 309 308 307 307 307 307 306 305 306 305 305 304 303 303 302 301 301 300 300 299 299 298 298 298 298 299 299 298 298
322 321 321 322 321 323 323 318 316 316 317 319 319 319 319 319 320 317 313 313 313 313 313 313 312 311 310 310 309 308 307 307 307 307 308 308 310 312 312 313 314 314 315 317 317 318 318 318 316 316 316 316 316 316 316 316 315 315 314 313 312 310 308 306 305 305 305 305 305 304 304 304 303 303 303 302 302 301 301 301 300 300 299 298 298 298 298 298 297 297 297 297 297 297 297 296 296
322 323 322 322 322 323 323 320 317 317 318 318 318 320 320 319 320 318 314 314 313 312 312 312 311 310 310 309 308 308 307 307 306 307 307 308 310 311 312 313 314 314 316 317 317 317 316 315 314 314 314 316 316 315 315 314 313 312 310 309 307 306 305 304 304 304 303 303 303 302 302 301 301 300 300 299 299 299 298 298 298 298 297 297 297 297 297 296 296 296 296 296 296 296 295 294 295
322 323 322 321 322 322 324 324 321 321 323 320 319 324 327 322 321 320 316 314 312 310 309 309 310 309 309 308 308 307 307 307 306 306 307 308 310 311 312 313 314 315 316 316 316 315 314 313 314 313 313 314 313 313 312 311 310 308 307 306 305 305 304 303 303 302 302 301 301 300 299 299 299 298 298 298 298 297 297 297 297 297 296 296 296 296 296 296 295 295 294 294 294 294 293 294 294
322 326 326 322 321 323 325 325 325 326 326 321 319 325 328 323 322 322 316 313 313 311 309 309 309 308 308 308 307 307 306 306 305 306 307 308 310 311 312 313 314 315 315 316 315 314 313 314 314 312 312 311 311 309 308 308 307 306 305 305 305 305 304 303 302 301 300 300 299 299 298 298 297 297 297 297 297 297 296 296 296 296 296 296 295 295 295 295 294 294 293 293 293 293 293 293 292
324 326 326 324 322 324 325 325 326 326 324 321 319 322 324 322 322 320 315 313 314 312 310 309 309 308 308 307 307 306 306 306 306 306 307 308 309 311 313 313 313 314 315 315 314 313 313 313 312 310 309 307 307 306 305 305 305 305 304 304 304 303 303 302 301 300 299 299 298 298 297 297 297 297 297 296 296 296 296 296 296 295 296 295 295 295 295 294 293 293 293 293 292 292 292 292 291
325 324 324 324 323 323 324 324 326 324 323 323 322 321 323 324 322 318 315 316 316 313 311 309 309 308 307 307 307 306 306 306 306 306 307 308 309 310 312 313 313 313 313 313 313 313 312 311 309 307 306 305 305 304 304 304 304 304 303 303 303 302 302 301 300 299 299 298 298 298 297 297 296 296 296 296 296 296 296 296 295 295 295 295 294 294 294 293 293 292 292 292 291 291 291 290 290
322 322 322 323 322 322 322 323 324 322 322 323 323 322 323 325 324 319 317 318 318 315 313 310 309 309 307 307 306 306 305 305 306 306 307 307 308 309 311 312 313 312 312 312 312 311 309 307 306 305 304 304 304 303 303 303 303 303 302 302 302 301 301 300 299 299 298 297 297 297 296 296 296 296 296 295 295 295 295 295 295 294 294 294 293 293 292 292 292 291 291 291 290 290 290 289 289
319 322 323 322 322 321 321 322 322 322 322 323 322 322 322 324 325 320 319 320 318 317 316 311 309 309 307 307 306 305 305 305 306 306 306 307 308 308 309 311 311 311 311 310 309 308 306 305 305 304 304 303 303 302 302 302 302 302 301 301 301 301 300 300 299 298 297 297 297 296 296 296 295 295 295 295 295 294 294 294 294 294 293 292 292 292 291 291 291 290 290 290 289 289 289 289 288
319 322 323 323 322 320 320 321 321 322 324 323 323 322 321 323 324 320 320 319 318 319 318 312 310 309 307 307 306 305 305 305 305 306 306 306 307 307 308 309 309 309 308 308 307 306 305 304 304 303 303 302 302 302 301 301 301 301 300 300 300 300 300 299 299 298 297 296 296 296 295 295 295 295 294 294 294 294 294 294 293 293 292 292 291 291 291 290 290 290 289 289 289 289 288 288 288
321 323 324 325 325 322 323 323 322 323 323 320 321 322 322 322 322 320 320 318 317 318 316 312 310 309 307 306 306 304 304 305 305 305 306 306 306 307 307 307 307 306 306 306 305 304 304 303 303 303 302 302 302 301 301 301 300 300 300 300 300 299 299 298 298 297 296 296 296 295 295 295 295 294 294 294 294 294 294 293 293 292 292 291 291 290 290 290 289 289 289 289 288 288 288 288 288
320 322 323 326 326 324 326 325 324 326 322 316 317 321 323 324 322 320 319 316 313 313 313 312 311 309 307 306 305 304 304 305 305 305 306 306 306 306 306 306 306 305 305 304 304 304 303 303 302 302 302 302 301 301 300 300 300 299 299 299 299 298 297 297 296 296 296 295 295 295 295 295 295 295 294 294 294 294 294 293 292 292 291 290 290 290 289 289 289 289 289 288 288 288 288 288 287
318 320 322 324 325 327 328 326 326 327 322 315 316 322 325 325 322 317 313 310 308 310 312 312 310 308 307 306 304 304 304 304 305 306 306 306 306 306 305 305 305 304 304 303 303 303 302 302 302 302 302 301 301 301 300 299 299 299 298 298 297 297 296 296 296 296 295 295 295 295 295 295 295 294 294 294 294 294 293 293 292 291 291 290 290 289 289 289 289 289 288 288 288 288 288 287 287
318 319 322 323 323 325 326 323 320 321 320 317 317 322 323 319 316 311 308 308 308 309 310 309 308 307 306 305 304 304 304 304 305 305 306 306 305 305 305 305 304 304 303 303 302 302 302 302 301 301 301 301 301 300 299 299 298 298 298 297 296 296 296 296 296 295 295 295 295 295 295 295 294 294 294 294 294 293 293 292 291 290 290 290 289 289 289 289 288 288 288 288 288 287 287 287 287
320 320 322 322 321 322 324 322 318 318 322 321 319 320 318 315 315 311 309 311 309 308 309 308 307 306 305 304 304 303 304 304 305 306 306 305 305 305 305 304 304 303 303 303 302 302 302 301 301 301 301 301 300 299 299 298 298 297 297 296 296 296 295 295 295 295 295 295 295 295 295 294 294 294 294 294 293 293 292 291 290 290 289 289 289 289 288 288 288 288 288 287 287 287 287 287 287
321 322 321 321 322 320 320 322 321 322 324 323 320 320 319 318 319 313 310 313 311 308 309 308 306 306 304 304 303 303 304 304 304 305 305 305 305 305 304 304 303 303 303 302 302 302 301 301 301 301 301 300 299 299 298 298 297 297 296 296 296 295 295 295 295 295 295 295 295 294 294 294 294 293 293 293 293 292 291 290 289 289 289 289 288 288 288 288 288 287 287 287 287 287 287 286 286
317 318 318 320 323 322 320 322 323 324 324 323 321 321 319 319 319 315 312 313 311 308 309 309 307 305 304 304 303 303 303 303 304 305 305 305 305 304 304 303 303 303 303 302 302 301 301 301 301 301 300 300 299 298 298 297 297 296 296 296 295 295 295 294 295 295 295 295 294 294 294 293 293 293 293 293 292 290 290 289 289 289 288 288 288 288 287 287 287 287 287 287 287 286 286 286 286
314 314 316 319 321 322 322 321 322 324 324 323 323 323 322 320 318 317 315 313 311 308 308 309 307 305 305 305 304 303 303 304 305 305 305 305 305 304 304 303 303 303 302 302 301 301 301 301 300 300 299 299 298 298 297 297 296 296 296 295 295 294 294 294 294 294 294 294 293 293 293 293 293 293 292 292 290 289 289 289 289 288 288 288 287 287 287 287 287 287 287 287 286 286 286 286 286
315 316 318 319 318 319 321 321 320 322 323 323 323 323 325 321 316 316 315 312 311 310 308 308 306 306 306 305 304 304 303 304 305 305 305 305 304 304 304 303 303 303 302 302 301 301 300 301 300 300 299 298 298 297 297 297 296 296 295 295 294 294 293 294 294 293 293 293 292 292 292 292 292 292 291 290 289 289 289 289 289 288 288 288 287 287 287 287 287 287 287 286 286 286 286 286 286
317 316 317 318 318 319 321 321 320 319 321 323 322 323 325 320 313 314 316 314 312 310 308 308 306 306 307 306 305 304 304 305 305 305 305 305 304 304 304 303 303 302 302 301 301 301 300 300 300 299 299 298 298 297 297 296 296 295 294 294 293 293 293 293 293 293 292 292 292 292 292 292 291 291 290 289 289 289 289 289 289 289 288 288 288 287 287 287 287 286 286 286 286 286 286 286 285
Wind_Speed
6 4 5 5 4 3 3 3 2 3 1 3 4 3 3 2 1 3 5 4 5 8 9 8 7 6 4 2 3 14 18 12 8 5 4 2 3 4 4 3 3 4 5 3 5 16 16 12 10 9 9 8 7 5 5 3 2 3 4 4 3 3 4 4 4 7 9 9 11 12 12 10 10 9 9 8 8 7 7 8 8 9 8 7 7 8 7 7 7 7 7 7 7 7 6 6 6
7 4 6 6 4 4 2 1 1 2 4 5 4 3 2 2 3 6 8 6 6 6 7 7 6 7 4 1 3 11 17 17 16 13 9 4 4 5 4 3 4 6 8 5 3 14 16 13 11 9 9 8 7 6 5 3 1 2 2 3 3 3 3 3 4 6 8 9 10 12 11 10 9 9 9 8 7 7 6 7 8 7 7 7 7 7 6 6 6 6 6 7 8 8 8 7 6
8 5 7 6 4 4 3 0 1 2 4 5 3 2 1 4 7 7 8 8 8 6 3 3 6 8 7 1 5 10 11 15 16 12 11 5 3 6 5 4 5 7 9 5 1 10 16 12 11 9 9 8 8 7 5 4 2 1 1 2 2 3 3 3 5 6 7 9 10 11 11 10 9 8 9 7 6 6 6 6 6 6 7 7 7 6 5 4 5 6 7 9 10 11 11 11 10
7 5 6 5 4 3 2 1 2 2 3 4 3 2 4 7 7 7 9 9 7 6 3 3 4 7 8 7 8 10 9 10 12 9 8 7 5 6 5 4 5 7 11 7 1 7 15 11 11 10 9 8 8 7 5 4 2 0 0 1 2 2 3 4 6 6 7 9 10 10 11 10 9 8 8 7 6 5 4 4 5 4 6 6 6 5 4 5 6 7 9 10 12 13 13 12 11
6 6 5 4 2 2 1 2 1 4 4 2 4 4 6 7 7 8 9 9 7 5 4 4 3 6 9 11 9 5 7 5 8 9 6 8 7 6 5 4 5 6 12 10 2 3 10 10 11 11 9 8 8 7 5 4 2 1 1 2 2 2 2 4 6 6 7 9 10 10 10 9 9 9 8 7 6 4 3 3 3 3 3 4 5 6 6 6 6 9 11 12 13 14 14 12 11
7 6 3 2 2 3 1 2 2 6 3 2 5 4 6 7 8 10 10 9 8 7 5 5 4 7 9 11 13 9 8 5 4 8 7 7 6 5 5 5 6 6 11 11 5 3 4 7 11 13 10 9 8 7 6 4 2 2 2 3 2 1 2 4 4 6 7 10 11 9 8 8 8 9 8 7 5 4 2 2 3 2 2 2 4 5 6 7 8 10 12 14 15 15 14 12 11
7 4 1 3 3 2 2 2 4 5 4 5 6 5 7 7 7 9 9 7 6 8 7 6 4 5 7 7 11 12 10 8 7 10 8 6 6 5 4 5 7 7 11 11 9 6 3 5 9 14 12 9 8 8 7 5 3 3 3 3 2 1 2 3 4 5 8 9 9 7 7 7 7 7 8 7 5 4 2 1 2 2 2 2 3 4 5 7 9 11 13 14 15 15 14 12 11
8 5 1 3 1 1 3 1 5 4 3 6 7 7 8 6 3 4 6 4 4 6 6 6 4 2 5 9 9 7 8 10 10 10 8 6 6 6 4 5 7 9 12 11 9 7 6 5 8 15 13 10 9 8 7 6 4 3 3 3 2 0 2 3 3 4 6 7 7 7 6 6 6 6 6 5 5 4 1 1 0 1 1 2 3 4 6 8 10 12 14 15 16 16 14 11 10
7 6 2 2 1 1 2 3 5 3 5 6 7 8 9 6 2 2 5 6 4 6 7 5 6 2 7 16 13 5 6 8 9 8 7 6 5 5 5 4 6 10 13 10 8 7 7 5 8 14 14 11 10 9 7 6 5 3 3 2 2 0 2 3 3 4 5 6 6 6 5 5 4 4 4 3 4 3 0 1 1 1 1 2 3 5 7 9 12 14 15 16 16 17 15 11 9
5 4 2 1 1 2 2 3 5 4 5 6 7 8 8 6 2 3 3 6 3 5 7 3 5 4 6 15 11 6 7 6 6 5 4 5 4 4 5 5 5 8 12 10 7 6 7 7 9 13 13 11 11 9 8 7 5 4 4 2 1 1 3 4 4 4 4 5 5 5 4 4 4 3 3 2 2 2 1 1 2 2 2 2 3 6 8 11 14 16 16 17 17 18 16 11 8
2 3 0 1 3 2 1 4 5 4 5 6 7 8 7 4 3 1 2 6 3 5 7 3 4 6 2 11 10 7 6 4 3 4 4 3 2 1 3 5 5 6 10 11 6 4 6 8 9 13 13 12 11 10 9 8 6 5 4 3 3 2 3 5 5 4 4 6 6 5 4 3 3 2 2 2 1 1 1 2 3 3 3 3 5 8 10 13 16 17 18 18 18 18 16 12 8
2 1 1 1 3 1 2 3 5 5 5 5 5 6 6 4 2 0 2 4 4 8 10 6 3 4 3 7 9 8 6 2 2 5 5 3 1 2 2 3 5 5 7 10 8 4 5 8 10 12 13 13 12 11 10 9 8 7 5 4 4 3 3 5 6 5 5 6 7 6 5 4 4 2 2 2 0 0 1 2 4 4 3 4 7 10 13 15 16 18 19 19 19 18 17 13 9
3 4 2 2 3 2 3 2 6 5 3 4 6 6 5 4 1 5 4 1 3 8 7 5 3 3 2 9 11 7 4 1 4 5 5 5 4 4 3 4 4 4 5 8 8 6 4 6 9 11 12 13 13 12 12 10 9 9 7 6 5 5 4 5 6 7 6 7 7 6 6 5 4 3 2 2 1 1 2 2 4 5 4 5 8 10 12 14 16 18 19 20 19 19 17 14 10
4 5 2 2 2 2 2 3 5 4 2 4 8 8 4 2 3 6 4 2 7 8 3 3 3 3 1 8 9 4 1 3 6 6 6 5 5 4 3 4 5 5 6 7 8 7 5 5 8 11 12 14 14 14 13 12 11 10 9 8 7 6 6 5 6 7 7 7 7 7 6 5 5 4 3 3 2 2 2 3 4 5 4 5 8 9 11 12 14 16 18 19 18 18 17 14 11
4 4 2 1 1 1 2 2 2 3 3 3 6 9 6 5 4 4 4 4 7 5 3 2 1 1 2 3 4 1 3 6 8 7 5 3 3 3 3 4 5 6 6 7 7 7 7 6 7 9 12 13 14 15 14 13 13 12 11 10 10 8 7 7 6 6 7 7 7 7 7 7 6 5 4 3 3 3 3 4 4 5 5 6 8 9 10 11 13 15 16 15 15 15 15 14 11
3 4 1 1 1 2 0 0 1 1 3 4 5 7 7 6 3 2 2 2 2 1 3 2 1 1 1 2 2 3 6 7 7 5 2 0 1 2 2 2 3 6 7 8 8 8 7 8 7 7 10 11 13 14 13 13 13 13 13 13 12 11 9 8 7 6 6 6 6 6 6 7 7 6 5 5 5 5 4 5 5 6 7 7 8 9 11 12 13 15 15 13 12 12 13 13 10
2 2 0 3 2 3 1 0 2 3 4 4 6 4 3 5 5 3 1 2 1 3 6 4 2 1 1 1 2 5 6 7 5 2 2 4 5 2 2 0 3 4 6 8 10 10 9 9 8 7 9 10 11 12 11 11 12 12 13 14 14 13 11 9 8 7 6 6 6 6 6 6 7 7 7 7 7 6 5 5 6 7 6 6 8 10 11 12 13 15 15 13 11 11 11 11 10
2 1 1 3 1 2 2 3 4 5 6 4 5 2 2 3 6 4 1 4 5 5 9 5 1 2 1 1 3 5 4 3 2 3 3 7 9 5 4 4 5 6 6 8 10 10 11 11 10 9 9 10 12 12 11 11 11 11 12 13 14 14 12 10 9 8 7 6 6 7 7 7 7 7 8 8 7 7 6 6 6 6 6 7 9 10 10 11 12 13 14 14 13 12 10 10 10
2 1 1 2 2 3 4 7 6 3 6 7 6 3 2 1 3 2 1 5 7 5 9 7 5 5 0 1 3 3 2 1 3 3 4 6 9 9 7 7 8 9 7 9 10 11 12 13 13 12 10 10 12 13 14 13 12 11 11 11 11 13 13 12 10 9 9 8 7 7 7 7 8 8 8 7 7 8 7 7 7 7 7 8 8 8 9 10 10 10 12 13 13 12 11 10 10
0 1 2 2 3 5 6 8 8 7 6 5 5 3 1 1 1 1 2 4 4 2 7 8 9 7 2 2 4 3 3 3 3 3 4 4 5 6 6 6 7 8 8 11 12 12 13 13 14 14 12 12 12 13 14 14 12 9 9 10 10 10 11 11 11 10 9 9 8 7 7 8 8 9 9 8 8 8 7 8 9 8 7 8 8 7 8 8 8 10 10 11 13 14 12 12 11
2 1 2 3 2 3 5 8 8 6 5 3 4 1 3 2 1 2 3 4 1 5 6 7 9 6 4 3 4 4 4 3 3 3 3 3 3 3 3 4 5 6 8 10 11 12 13 14 14 14 14 13 13 13 12 11 10 8 8 9 9 10 10 10 9 9 9 9 9 9 9 10 10 9 10 10 10 9 8 8 8 6 6 6 6 6 6 7 8 10 11 11 14 15 15 15 14
3 1 5 4 3 2 6 8 6 4 3 2 1 1 1 3 2 4 4 3 2 4 3 3 3 4 5 4 5 6 4 3 2 3 3 3 3 3 3 4 5 7 8 9 10 11 12 13 14 14 15 14 13 12 11 11 10 9 8 8 9 9 9 9 9 9 9 10 10 10 11 11 10 9 9 9 8 8 8 7 7 7 5 4 4 5 6 9 9 10 12 13 14 15 16 17 15
2 2 6 6 4 3 6 6 4 3 1 2 3 2 1 1 5 6 5 3 3 5 4 3 3 4 4 5 6 6 4 3 3 3 3 3 3 3 4 5 6 7 8 9 10 11 11 11 12 13 13 14 12 12 11 10 10 10 9 10 9 9 9 9 9 9 10 12 11 11 11 10 9 10 9 7 7 8 7 6 6 6 5 4 5 6 8 9 9 10 11 13 13 14 16 15 14
2 1 5 6 3 3 5 6 5 3 4 4 4 3 4 5 5 5 6 5 6 7 6 5 2 4 5 6 6 5 4 3 4 4 4 4 4 5 6 6 6 7 7 8 9 10 10 10 11 10 10 12 11 10 10 9 10 11 11 13 13 12 11 11 11 12 12 12 12 12 12 11 11 11 9 9 9 7 6 7 6 5 6 6 6 7 8 7 7 10 11 13 14 16 16 14 13
4 1 4 4 0 1 4 5 5 6 6 6 6 5 8 10 6 4 7 8 9 8 5 4 4 6 6 5 4 3 3 3 4 5 5 5 5 6 7 8 8 7 7 7 7 8 9 10 11 9 8 10 8 7 8 9 12 14 13 15 17 15 14 13 13 13 13 11 11 12 12 11 11 9 8 9 11 10 9 9 7 6 7 8 7 7 7 7 9 11 11 12 14 15 15 14 12
1 4 3 2 2 3 5 7 8 8 9 8 7 8 11 11 7 2 7 11 9 7 6 5 6 5 4 3 3 3 4 4 5 6 6 6 6 7 8 8 8 7 6 6 6 7 7 8 9 10 12 13 9 9 12 14 15 16 15 16 17 16 15 14 14 14 12 11 10 10 10 10 10 11 10 9 10 11 9 9 8 8 9 9 10 9 9 11 12 11 10 11 12 13 12 12 12
4 5 5 6 8 8 7 8 10 9 9 10 8 7 9 9 7 2 7 12 9 7 8 7 6 4 3 3 3 4 6 6 6 7 7 7 7 8 8 7 7 5 4 5 4 5 6 6 8 10 14 17 16 15 17 18 17 17 16 16 17 16 16 16 15 14 12 11 9 8 9 9 9 10 11 11 11 12 10 10 10 10 11 11 11 11 12 12 10 8 8 9 10 11 10 10 10
4 5 6 9 13 13 11 10 11 9 5 10 10 7 4 7 4 5 11 13 10 10 8 8 6 4 4 4 5 6 6 7 7 8 6 6 6 6 6 6 5 4 3 3 3 3 3 6 9 11 14 17 19 18 17 18 17 17 16 16 16 15 15 16 15 14 12 9 7 7 8 9 10 9 9 9 11 13 12 11 11 10 11 11 10 9 9 8 6 5 5 6 8 9 9 9 10
4 4 4 8 9 9 14 13 12 10 4 7 8 4 5 7 4 7 14 14 12 10 8 8 6 5 4 5 6 7 6 7 7 6 4 3 3 4 3 4 3 3 2 1 1 1 2 5 9 11 13 15 17 17 17 17 16 16 16 15 14 14 13 13 12 11 10 8 7 7 6 8 9 10 9 8 9 10 10 10 9 10 10 11 9 6 5 4 3 3 4 5 6 8 9 10 11
3 4 3 4 5 5 12 13 11 9 4 7 8 1 5 6 7 11 14 15 14 11 9 9 7 5 4 4 5 6 6 6 6 5 4 3 4 3 2 2 2 2 1 0 1 2 2 4 6 8 11 12 13 15 16 15 16 15 15 14 12 11 11 10 10 9 8 7 6 6 6 8 9 10 9 7 6 5 6 6 5 6 7 7 5 2 1 2 2 2 5 7 6 5 5 7 10
2 4 3 2 3 3 3 9 11 7 4 9 8 2 4 4 9 12 13 14 15 12 11 10 8 7 6 6 5 5 5 6 6 6 5 5 4 3 2 3 3 2 2 2 2 4 4 4 7 6 9 11 11 13 14 14 15 14 14 14 12 10 9 8 7 6 5 5 4 4 6 8 7 7 7 6 6 4 4 3 2 3 5 4 2 1 1 2 2 3 6 8 5 4 5 8 11
3 2 3 2 3 2 1 8 12 6 3 10 7 2 2 4 9 12 13 14 13 12 12 11 10 9 8 7 6 7 6 6 7 7 6 5 5 4 3 3 3 3 4 5 4 6 6 5 7 8 8 10 11 11 11 14 14 12 11 12 11 9 8 8 7 5 4 4 2 2 3 2 0 0 2 3 3 3 3 3 4 5 4 3 2 1 3 3 3 5 6 5 5 6 9 11 11
3 3 3 3 4 4 2 5 10 6 5 8 7 3 1 3 10 13 14 16 14 12 13 12 11 10 9 9 9 8 7 6 8 8 6 6 6 5 4 3 4 5 5 7 5 5 8 7 7 10 9 9 12 11 11 13 12 10 10 9 9 8 7 7 6 5 4 4 2 1 1 3 5 4 2 2 1 2 3 5 5 5 5 4 4 4 4 4 4 5 4 4 6 9 10 11 12
4 4 4 5 5 5 2 1 6 6 4 6 7 6 4 3 11 15 16 17 16 14 14 14 13 11 11 10 10 8 6 7 9 8 6 7 6 6 5 4 5 7 6 8 7 5 8 8 8 10 10 10 12 12 12 11 9 9 10 10 10 9 8 8 7 6 5 4 3 2 3 4 5 6 6 5 4 4 5 6 6 6 6 5 5 4 3 3 3 3 5 6 7 9 10 11 12
4 4 3 4 4 6 4 1 5 8 5 5 6 7 7 5 10 14 17 18 18 17 15 16 14 12 13 12 10 10 9 10 11 8 7 7 6 5 5 5 7 9 9 9 9 8 8 9 9 10 12 12 11 11 11 11 11 11 11 11 10 9 9 9 8 7 6 5 5 6 6 5 5 6 7 7 6 6 7 6 6 6 5 4 3 2 2 3 4 5 6 6 7 8 9 11 12
6 4 1 3 3 4 3 3 5 6 3 5 6 7 7 5 8 12 16 18 18 16 15 16 15 14 14 12 12 11 11 13 12 8 8 7 6 5 6 8 9 10 11 10 10 10 10 12 13 12 13 12 10 9 9 11 12 12 11 11 10 9 9 9 8 7 6 6 5 6 6 6 6 6 6 6 7 6 5 4 4 3 1 1 2 2 3 3 4 3 3 4 8 8 9 11 13
8 4 2 5 4 5 3 3 4 2 2 5 6 6 8 6 6 12 17 17 15 15 14 16 16 15 15 13 13 12 12 13 11 9 9 8 7 6 9 12 11 12 12 12 12 11 11 14 16 15 15 14 13 12 11 11 11 11 12 11 10 11 10 8 7 6 6 6 5 5 6 6 5 5 5 4 4 3 2 1 1 1 1 2 3 4 5 6 6 7 6 7 9 10 11 13 13
8 4 4 5 3 6 5 2 4 3 2 4 6 7 9 9 7 11 17 14 13 17 17 17 17 16 15 15 14 13 14 13 10 10 10 9 8 8 12 14 14 14 14 14 14 12 13 14 12 12 13 12 12 12 11 10 10 10 10 10 9 9 9 7 6 6 7 7 6 7 7 6 6 6 6 5 4 4 4 4 5 6 7 8 9 11 12 12 12 12 12 12 12 13 14 15 14
7 3 2 4 3 5 3 3 3 3 1 3 5 7 8 9 8 10 17 15 15 21 19 18 19 18 17 16 16 15 14 12 11 12 11 11 10 11 14 15 14 15 15 15 14 14 15 14 11 10 10 9 9 9 8 8 9 9 8 7 7 8 10 10 11 14 13 13 13 13 13 13 12 12 12 12 11 11 11 11 12 12 13 13 13 13 13 13 14 13 13 14 14 14 14 16 16
4 3 2 4 3 4 3 1 2 3 2 3 4 6 6 7 6 6 16 18 14 16 16 16 18 18 17 17 16 16 14 12 12 12 12 13 13 13 15 16 16 17 17 16 16 15 16 14 11 11 10 10 10 9 8 8 9 9 8 9 11 14 17 18 19 20 18 18 19 18 18 17 16 16 16 15 15 15 14 14 14 14 14 14 13 12 12 13 13 13 13 13 14 14 15 17 17
4 6 6 5 4 6 5 2 2 2 3 4 3 6 6 8 10 7 9 11 8 10 12 13 15 16 15 16 16 14 14 14 14 13 14 15 16 16 17 18 18 19 19 18 18 16 15 13 12 12 13 12 12 10 9 8 9 12 14 17 18 20 21 21 21 21 20 19 19 19 19 17 16 16 16 15 15 14 14 14 13 13 13 12 12 12 13 13 13 13 13 14 14 15 16 16 16
5 7 8 9 7 7 6 1 2 1 3 4 3 3 4 5 10 9 6 4 4 8 10 11 14 15 15 18 17 15 14 14 14 15 15 17 18 18 18 19 19 20 20 19 18 17 15 15 15 14 15 14 14 12 11 12 14 16 18 19 19 20 22 21 20 20 19 18 18 18 17 16 15 14 14 14 13 13 13 12 12 12 12 12 13 13 13 13 14 14 15 15 15 16 15 15 15
5 4 4 7 8 6 5 4 1 1 3 2 4 3 4 4 5 6 8 7 7 7 8 12 16 17 18 19 19 19 18 17 16 16 17 19 20 21 21 21 21 20 21 20 19 18 17 17 16 15 15 16 17 17 16 17 17 18 18 18 18 18 19 20 19 18 17 17 16 16 15 15 14 13 12 12 12 12 11 11 12 12 12 13 13 14 14 15 16 16 16 17 16 17 16 16 17
4 3 2 3 4 4 4 4 4 3 2 2 3 3 4 6 5 4 8 7 6 7 8 11 17 20 21 20 21 22 22 21 20 19 20 21 22 23 23 23 22 22 22 21 20 19 18 17 16 16 16 18 18 19 18 17 16 17 16 16 17 16 16 18 18 16 16 15 14 14 13 12 12 11 11 10 10 10 10 11 11 12 12 13 14 14 15 16 16 16 17 17 17 18 18 18 18
2 1 2 4 3 1 2 4 4 3 3 3 4 3 3 7 4 6 7 6 7 10 11 11 17 22 22 22 22 21 22 23 22 21 22 23 23 24 25 25 25 24 24 23 22 20 19 18 18 19 19 19 18 17 17 17 15 15 15 14 15 15 15 16 16 15 15 13 12 12 11 10 10 9 9 9 9 9 10 10 11 11 12 13 14 14 15 15 15 16 16 17 17 17 18 17 17
3 3 5 5 3 2 0 2 2 2 5 5 5 6 4 7 3 6 4 5 7 10 10 11 18 23 23 24 24 22 22 23 23 23 24 25 26 25 26 26 26 25 25 24 22 21 21 22 22 22 21 19 18 17 16 16 15 14 14 12 12 13 14 14 14 14 13 11 10 10 9 9 9 8 8 8 8 9 9 10 11 12 13 14 14 14 15 15 15 16 16 16 17 17 16 16 16
7 5 5 4 1 3 2 1 2 2 7 6 7 9 6 6 3 7 6 7 9 8 7 10 16 22 25 25 26 25 24 24 25 26 26 27 27 27 27 27 27 26 25 24 24 24 24 24 23 22 21 20 19 17 16 15 15 13 13 12 11 11 12 12 12 12 12 10 9 9 8 8 7 7 7 8 8 9 10 11 12 14 15 15 15 16 16 16 16 16 16 16 16 16 16 15 15
6 4 4 2 0 2 2 2 2 4 7 5 9 11 10 8 4 5 6 8 10 9 9 11 15 22 27 27 27 27 26 26 27 28 28 29 28 28 28 28 28 28 27 27 26 26 26 24 23 22 21 20 19 17 16 15 15 14 13 12 11 11 10 10 10 10 10 9 8 8 7 7 7 7 7 8 9 10 11 13 14 15 16 16 16 17 16 16 16 16 16 16 16 15 15 15 14
3 4 5 3 1 0 1 3 3 6 7 3 6 8 9 9 7 7 5 2 2 4 10 17 20 24 28 28 28 27 27 28 29 30 31 30 30 30 31 30 30 29 29 29 28 27 26 24 22 21 20 20 18 18 17 16 15 15 14 12 11 11 10 10 9 9 9 8 7 6 6 6 6 6 7 8 9 11 12 13 14 15 16 16 16 16 16 16 16 16 16 15 15 15 15 15 14
6 6 6 5 4 3 4 4 3 5 5 3 1 2 3 4 5 9 6 1 4 5 8 21 25 27 27 27 28 27 27 30 31 32 32 32 32 32 32 32 31 31 31 30 29 27 25 24 22 21 20 19 18 18 17 17 16 15 14 12 11 11 11 10 9 9 8 7 6 5 5 4 4 5 6 8 9 11 12 14 15 16 16 16 16 16 16 16 16 16 15 15 15 15 15 15 15
8 6 6 6 5 3 4 4 4 3 1 3 1 2 3 2 2 4 1 5 6 9 12 19 22 23 24 25 26 26 28 31 32 33 33 33 33 33 33 33 33 32 31 30 28 27 25 24 23 21 21 20 19 18 18 17 16 15 14 13 12 11 11 10 9 8 8 6 5 3 2 2 2 4 6 8 9 11 13 14 15 15 15 15 15 15 15 15 14 14 15 15 15 15 15 15 15
5 4 5 6 4 2 2 2 2 1 1 2 3 3 4 3 1 1 4 6 6 8 16 21 21 22 25 25 27 28 29 32 34 34 34 34 34 34 34 34 34 33 31 30 29 27 26 24 23 22 20 19 19 18 18 17 16 15 14 13 12 12 11 10 9 8 7 6 4 3 2 1 2 4 6 8 9 11 12 13 13 13 13 13 13 13 13 13 14 14 14 14 14 15 15 15 15
3 4 6 5 2 1 3 2 1 1 4 4 4 4 4 1 1 2 5 4 3 3 11 19 20 23 25 25 28 30 31 34 35 36 36 36 36 36 35 35 34 33 31 30 29 27 26 25 24 23 21 20 19 19 19 18 16 15 15 14 13 12 11 10 9 9 8 7 6 4 2 0 2 4 6 8 9 11 11 12 12 12 12 12 12 12 13 13 13 14 14 14 15 15 15 15 16
4 5 5 3 3 1 1 2 1 2 7 4 5 6 4 3 4 2 5 4 3 4 6 13 17 21 23 24 28 30 31 33 34 35 36 36 37 37 36 35 34 33 32 31 29 28 27 25 24 23 22 21 21 20 19 18 17 16 15 15 14 13 13 12 11 10 9 8 7 4 2 1 2 4 6 7 9 9 10 10 10 10 11 11 11 12 12 13 13 14 14 15 15 15 16 16 17
3 2 2 3 1 2 3 2 3 4 6 5 4 6 6 7 6 4 7 10 9 7 7 9 14 20 23 24 27 28 30 32 34 36 37 38 39 38 37 36 35 34 33 32 30 29 28 26 24 23 21 21 21 20 20 19 18 17 16 16 16 15 14 14 13 12 10 9 7 4 2 1 2 3 5 6 7 8 8 9 9 10 11 11 12 12 13 13 14 14 15 15 15 16 16 17 18
2 3 3 1 2 3 4 3 2 3 5 5 3 3 4 7 7 10 13 13 13 12 10 10 14 22 26 27 29 31 32 35 37 39 39 40 40 39 38 37 36 35 34 33 32 30 29 28 26 24 23 22 22 21 20 20 19 18 18 17 17 17 16 15 14 12 11 9 7 5 3 1 1 3 4 5 6 7 7 9 10 11 12 13 14 14 14 15 15 15 16 16 17 17 18 19 20
4 2 3 3 2 1 0 2 2 3 3 4 3 5 5 3 3 10 16 14 14 16 14 12 16 24 27 28 31 34 36 38 39 40 41 41 41 40 39 38 37 36 35 34 33 32 31 29 28 27 26 25 24 23 22 21 21 20 19 19 19 18 17 16 15 13 11 9 7 5 3 2 2 3 4 5 6 7 8 10 12 13 14 15 15 16 16 16 16 16 17 17 18 19 20 21 21
8 7 7 8 6 3 2 4 4 4 4 3 3 6 6 3 3 2 8 10 12 17 16 14 19 26 27 28 32 34 36 38 38 40 41 41 42 41 40 40 39 38 37 36 35 34 32 31 30 29 28 26 25 24 23 23 22 21 21 21 20 19 18 17 15 13 11 10 8 6 4 2 2 3 4 4 6 7 9 11 12 14 15 16 16 16 17 17 17 17 18 18 19 20 21 22 22
Wind_Direction
26 66 89 83 90 67 34 27 317 234 160 72 81 100 59 67 129 84 74 85 80 45 39 39 28 11 17 27 61 62 49 44 51 67 107 118 59 46 99 83 22 77 164 184 162 178 179 180 175 171 171 168 167 161 161 156 123 105 94 102 107 83 48 42 70 99 108 110 110 114 111 100 96 93 86 77 63 54 52 52 53 55 64 76 79 78 77 78 76 70 63 53 45 40 35 34 33
36 64 91 89 72 29 357 56 289 241 113 77 63 88 131 120 57 55 54 57 66 55 53 41 49 28 12 135 113 75 49 52 73 87 93 84 52 49 91 63 36 95 149 172 145 176 181 180 181 175 172 173 169 172 173 166 147 118 97 99 101 95 75 69 100 113 112 110 109 111 109 101 95 91 88 82 70 59 53 57 54 55 69 81 80 79 75 73 68 54 41 26 14 5 357 354 352
40 54 94 85 20 340 304 220 244 268 107 96 77 109 177 86 62 60 57 58 63 61 61 61 73 16 345 35 74 81 58 54 69 82 83 69 37 49 85 58 55 109 141 172 127 177 182 179 184 182 173 178 173 179 186 177 170 146 87 85 84 80 85 100 123 126 120 117 110 106 103 99 93 86 86 85 79 66 52 54 51 58 78 86 80 77 73 59 46 27 16 5 355 346 338 333 328
40 61 85 59 355 296 277 221 236 327 71 105 98 79 75 81 77 73 67 66 61 45 21 38 79 27 23 34 43 69 54 46 51 58 81 64 56 66 85 68 72 118 137 160 287 179 179 176 183 188 179 182 183 185 194 192 187 207 7 56 77 74 81 107 132 134 127 122 112 106 101 95 87 75 78 84 84 75 63 61 48 53 71 80 73 58 43 30 24 9 3 355 347 341 335 331 325
59 82 76 40 360 284 306 270 272 53 33 93 111 85 85 88 92 90 83 79 62 47 33 20 76 81 58 36 40 54 21 42 40 32 65 58 56 74 89 91 80 117 137 147 245 189 169 175 182 190 188 185 191 191 200 204 199 273 319 360 36 80 82 104 132 140 134 127 118 110 100 89 81 71 71 78 87 88 84 80 66 54 46 57 56 38 19 9 8 360 356 352 348 346 342 340 336
58 66 64 7 307 302 311 285 35 84 3 10 114 92 87 88 98 105 103 95 75 63 49 27 44 85 83 60 63 58 38 68 46 37 68 68 67 85 97 109 91 117 132 135 199 242 156 185 187 190 194 189 194 194 202 214 216 263 291 335 357 85 97 101 123 141 135 131 124 111 94 83 80 73 71 73 87 100 93 92 95 77 26 22 26 21 11 358 355 353 353 354 353 352 350 349 348
42 34 49 314 292 286 273 275 62 84 359 20 99 99 90 91 115 127 118 113 101 81 58 50 35 69 109 108 73 53 57 79 68 60 69 79 83 93 109 121 108 121 130 140 193 222 204 215 193 189 195 193 197 198 198 213 220 255 276 326 349 96 122 115 116 132 134 136 129 108 92 87 82 70 69 67 67 75 68 59 86 83 39 360 4 6 354 346 346 346 351 354 355 355 355 355 355
30 5 332 305 284 206 278 41 64 77 55 45 67 84 100 103 118 127 106 93 103 98 73 65 21 13 126 119 95 56 62 74 67 62 60 79 89 102 116 130 131 130 138 161 197 208 208 219 196 188 192 195 199 202 202 211 215 246 275 323 343 91 147 137 123 130 139 142 128 108 96 91 86 69 70 71 64 59 47 16 341 64 11 333 339 350 337 332 336 338 346 350 353 355 354 357 359
353 329 308 275 279 223 281 91 87 90 100 85 77 86 102 106 55 32 101 106 92 84 65 38 6 1 113 101 102 91 70 65 59 58 56 70 83 111 124 138 148 146 151 174 200 209 215 208 197 189 189 197 202 207 214 217 220 244 262 298 323 269 169 161 149 144 153 150 129 118 111 103 101 85 84 84 85 85 84 198 209 256 307 316 320 329 329 327 331 335 341 344 348 352 352 355 358
306 286 325 313 295 222 220 114 106 100 92 93 103 110 115 118 98 16 74 106 86 78 64 13 20 24 112 105 107 108 90 66 45 44 44 57 69 113 136 146 160 164 164 174 190 204 212 203 195 191 191 198 203 210 220 222 228 247 244 250 280 236 180 176 170 162 163 157 142 135 129 120 125 116 106 98 115 126 160 216 196 236 271 301 322 324 331 332 333 335 337 339 343 349 351 352 352
281 225 16 327 274 224 208 108 107 111 106 95 98 113 119 112 113 53 81 98 107 111 75 356 31 10 48 109 112 132 120 91 26 13 12 23 56 126 159 165 172 174 172 178 187 187 194 200 195 193 194 197 202 208 217 222 223 235 233 224 228 212 181 184 182 174 171 163 157 154 147 144 149 156 126 113 126 138 201 259 244 239 257 303 329 332 336 337 338 338 337 337 340 346 350 349 343
316 264 62 277 278 17 27 93 108 104 121 129 115 116 119 124 164 171 92 101 131 111 69 17 39 353 321 114 126 158 155 120 360 357 348 317 283 217 208 197 186 182 181 183 195 200 185 197 198 197 197 195 200 204 213 218 218 227 230 226 224 215 190 190 188 177 172 167 167 171 169 172 173 186 160 143 282 319 283 288 272 262 281 319 337 343 341 340 342 340 337 336 337 342 348 347 337
348 346 10 276 291 39 13 56 102 109 146 139 111 120 132 149 147 33 30 20 91 91 67 43 62 338 354 115 136 165 170 34 346 339 322 298 273 246 219 212 201 191 190 189 197 205 197 198 198 201 201 196 198 202 210 215 219 226 228 232 232 228 212 197 196 188 177 172 180 186 185 190 189 193 199 213 248 293 303 293 271 281 303 320 335 343 340 339 340 337 333 332 333 339 345 346 334
7 355 351 265 315 35 31 75 119 143 152 96 104 132 139 87 58 41 358 355 70 75 82 83 54 310 29 112 138 163 105 356 335 323 314 296 268 259 232 217 206 198 200 201 201 198 204 208 198 201 204 200 198 202 210 215 220 225 226 231 233 232 231 217 204 197 192 188 191 195 199 202 200 208 227 240 258 274 285 284 275 292 301 309 327 339 338 339 340 336 333 330 330 336 343 346 333
2 340 300 277 335 52 42 80 141 164 139 103 117 144 132 78 83 66 6 31 71 70 54 75 25 324 360 84 129 324 350 338 326 320 319 294 261 258 247 231 207 204 205 207 212 206 204 212 207 198 202 203 199 200 207 213 219 224 226 228 231 234 237 233 219 210 208 208 205 203 206 208 211 223 239 255 275 272 269 283 286 295 299 310 328 338 337 339 342 338 338 338 336 337 344 349 337
346 341 310 292 205 141 156 106 57 79 116 110 124 152 143 111 114 98 45 29 86 116 68 92 139 109 315 42 66 332 329 326 320 312 313 75 23 318 284 268 225 211 208 211 215 217 209 211 215 200 198 199 197 199 202 208 212 219 225 227 232 236 236 233 229 227 222 223 221 214 212 212 217 229 243 254 264 269 278 285 284 292 301 317 334 337 335 338 339 337 339 343 345 346 350 354 345
352 7 255 259 207 122 229 195 92 123 115 121 134 157 167 132 149 143 162 261 234 166 130 139 164 157 227 53 7 328 322 315 303 271 167 114 86 34 325 207 237 223 215 222 219 220 217 212 212 209 204 193 189 197 204 209 209 214 223 227 231 234 234 230 230 236 231 228 228 225 220 215 221 232 241 245 250 259 271 279 286 297 304 320 330 330 329 330 331 333 334 338 344 350 355 357 353
341 322 225 280 24 81 333 38 96 152 134 128 123 71 334 132 145 138 235 221 215 183 138 151 180 97 143 115 345 324 306 297 228 186 152 139 141 173 217 193 222 235 227 233 232 228 225 220 213 210 211 198 186 186 200 214 215 218 223 227 230 231 232 233 232 236 236 229 222 221 216 214 224 235 244 249 250 252 258 267 280 287 289 303 315 318 316 319 322 326 331 337 342 345 351 357 358
310 290 301 356 43 58 19 56 60 75 111 120 110 68 345 88 108 100 284 216 214 186 131 147 118 87 181 247 338 313 249 151 133 155 146 158 171 193 218 216 227 239 239 240 239 234 231 230 224 216 211 203 194 183 191 209 215 222 229 227 228 228 230 236 237 234 232 227 218 213 208 209 224 239 247 249 244 245 253 262 270 271 277 290 296 298 303 312 317 323 333 340 347 349 349 353 357
18 327 352 55 81 77 53 68 65 46 79 112 110 95 318 341 60 48 315 286 252 105 111 137 117 106 236 292 318 275 196 134 127 144 151 173 189 206 223 232 241 245 248 247 246 242 237 236 233 228 219 208 203 191 188 199 210 218 226 225 224 226 228 234 238 234 231 229 223 211 203 205 224 241 248 250 248 250 258 267 272 275 281 285 284 291 304 311 312 323 331 336 349 358 357 353 351
333 339 84 83 23 83 77 79 82 63 59 64 87 53 294 191 174 319 307 302 321 84 89 120 123 139 208 276 283 237 195 161 158 162 170 175 185 216 239 251 259 260 258 258 256 252 244 241 237 233 231 219 205 199 186 182 198 205 210 217 223 227 228 230 232 232 233 234 229 217 211 210 218 234 245 252 259 266 270 274 280 282 282 280 286 301 305 302 308 322 324 329 347 356 357 353 348
306 65 98 81 9 66 102 94 95 86 66 59 124 303 279 166 236 281 258 268 149 127 129 137 157 195 220 244 233 214 203 189 195 195 194 192 200 229 253 261 265 266 265 266 264 260 253 247 243 236 235 229 209 199 185 174 185 187 190 203 217 226 227 228 225 224 229 232 228 222 225 219 214 226 240 248 257 267 268 271 279 282 286 283 282 290 289 292 304 313 316 330 347 349 350 349 346
320 97 92 76 38 72 116 128 129 123 151 217 226 227 180 221 280 254 222 236 200 198 233 263 261 231 209 207 199 201 201 207 226 229 233 230 239 252 263 268 268 268 265 265 263 264 261 255 249 240 236 235 218 200 187 179 178 173 181 192 205 217 220 225 226 226 226 228 225 221 227 227 228 236 236 242 253 257 260 266 272 272 279 275 260 277 288 288 295 305 316 334 342 341 344 347 347
270 241 109 94 49 64 126 155 164 170 200 215 237 246 234 259 271 221 191 204 223 234 264 280 241 178 171 176 183 196 199 219 235 239 250 253 264 273 282 285 283 281 275 269 264 261 261 254 246 235 228 229 220 205 191 174 172 179 188 188 195 203 205 209 213 221 225 227 228 226 231 234 239 242 229 233 250 253 252 253 248 243 247 248 252 280 286 273 283 301 316 330 333 336 345 351 352
231 311 87 95 40 202 165 173 193 202 208 224 239 241 248 247 237 197 175 189 224 237 250 235 169 155 164 168 178 205 228 252 260 257 258 264 276 283 292 298 299 298 288 274 265 256 251 244 236 217 193 196 202 196 178 172 183 193 196 192 195 199 202 203 206 219 226 228 230 230 234 234 236 243 230 225 236 238 233 234 230 230 240 246 254 265 257 252 277 297 313 327 331 338 348 351 352
298 14 18 343 263 219 196 193 213 216 214 220 218 235 252 235 215 199 176 194 221 220 201 173 149 150 165 176 198 240 261 259 262 266 271 275 285 291 297 301 301 300 290 279 267 250 241 233 225 202 171 163 171 177 175 185 194 196 199 198 197 198 202 206 211 222 229 229 230 231 233 239 246 253 250 238 239 239 234 240 244 244 250 252 254 255 257 268 284 300 318 327 330 339 348 347 344
360 352 328 296 275 258 226 216 230 225 216 207 197 244 250 197 195 212 183 205 214 182 169 154 144 161 192 218 233 243 249 244 246 251 261 271 278 286 292 297 296 293 281 273 269 251 233 219 204 189 174 166 173 183 184 191 196 195 199 200 198 199 202 208 216 223 232 237 235 234 234 242 250 250 249 246 252 255 248 249 252 248 248 252 263 274 278 282 289 304 319 325 331 337 340 338 336
357 337 311 278 260 251 233 226 232 221 213 204 204 256 228 159 204 211 183 197 186 163 160 151 153 179 216 234 238 242 240 235 238 238 244 252 260 274 280 283 284 287 280 266 263 249 222 199 189 183 179 177 180 186 190 193 197 199 200 199 197 200 205 208 216 224 235 245 245 243 241 244 245 243 245 242 250 257 250 243 242 240 242 247 255 266 272 275 285 303 319 330 333 329 329 330 333
331 307 292 281 265 248 227 217 212 201 196 194 189 263 229 184 186 166 174 178 160 155 158 153 168 195 222 236 231 231 232 237 244 249 255 255 267 275 264 264 271 282 286 280 240 225 183 176 187 181 175 182 184 184 192 195 197 203 202 198 198 205 214 215 219 227 234 247 254 256 258 258 251 246 249 248 252 256 248 241 237 236 240 239 233 233 248 264 277 302 323 327 329 328 329 328 336
299 262 230 285 296 267 222 198 177 171 173 178 166 255 245 188 147 150 169 170 155 157 163 162 175 190 204 223 235 236 235 248 262 276 292 297 295 288 252 239 231 243 236 45 75 107 99 143 166 171 168 181 188 185 192 194 196 203 199 192 190 200 214 218 224 229 232 244 251 259 278 283 271 251 243 242 247 250 249 250 247 237 231 226 217 207 235 261 287 320 322 316 322 338 330 315 323
274 275 219 228 270 294 212 154 149 157 174 176 170 267 258 143 141 162 174 170 162 164 170 173 177 188 202 206 229 249 246 258 273 280 289 290 288 281 249 218 189 178 153 133 89 98 93 103 124 141 160 172 178 181 190 193 195 198 192 188 189 194 200 202 211 216 221 236 242 255 276 284 282 260 241 237 239 241 254 253 199 178 182 181 157 113 263 260 295 316 315 308 299 296 297 304 317
209 246 257 227 198 243 147 147 165 170 172 181 182 265 236 142 154 170 175 173 171 172 176 179 182 189 203 203 209 233 242 251 261 262 266 266 265 258 234 203 162 143 133 126 104 106 114 109 114 119 133 155 163 165 175 183 188 187 180 183 189 192 193 189 190 191 198 211 219 243 260 263 57 293 240 238 241 242 241 207 167 161 161 170 178 206 258 259 284 300 304 293 275 285 303 314 317
204 188 250 256 213 219 163 167 193 168 135 188 203 246 280 134 162 174 180 179 178 184 182 181 189 189 195 200 198 217 237 243 247 244 246 245 243 240 221 197 149 126 113 116 112 106 112 108 116 125 125 141 159 160 162 165 169 173 169 166 167 171 176 174 173 177 182 178 175 200 151 112 115 115 115 129 154 194 199 190 182 183 185 199 216 228 241 253 283 298 294 280 284 298 308 310 312
220 186 219 244 242 234 192 183 216 182 161 206 210 233 267 153 163 178 187 183 183 194 189 182 191 191 193 199 197 207 216 228 243 239 235 239 237 231 212 187 144 128 116 112 108 100 111 114 120 139 143 139 144 154 165 164 157 163 161 153 151 152 154 150 150 158 157 145 137 135 114 107 126 133 131 138 152 167 177 182 183 183 187 198 215 225 230 251 281 289 283 287 299 308 313 318 329
231 214 210 249 254 243 235 176 185 180 197 236 206 224 246 181 165 181 189 187 189 197 193 186 190 192 196 200 197 198 199 220 243 240 231 235 233 226 198 159 135 134 131 125 121 116 121 128 129 139 148 145 133 133 148 154 154 157 153 149 150 148 147 144 142 144 138 135 129 122 120 118 125 134 141 149 157 165 172 174 170 168 174 182 193 219 252 275 286 293 295 312 337 340 345 353 2
271 285 306 289 285 267 264 116 166 177 190 234 222 236 249 202 171 182 191 190 194 202 191 183 186 191 198 198 198 198 202 225 241 234 226 227 222 211 169 137 132 138 136 138 138 132 129 131 138 143 144 148 149 144 144 145 149 155 156 159 160 154 152 153 151 147 146 153 151 142 141 140 135 137 146 151 153 155 158 157 154 154 168 233 272 286 301 308 313 321 325 2 22 21 21 20 19
279 304 307 283 290 280 277 122 163 163 157 228 234 251 261 244 196 182 188 189 200 206 186 178 185 190 194 193 196 198 206 227 238 225 218 214 209 191 155 141 139 140 137 138 140 144 145 138 139 143 140 143 151 158 160 158 157 160 164 165 163 157 155 167 178 182 186 187 185 171 160 157 156 158 156 157 161 155 153 147 105 31 26 10 19 37 43 45 40 41 37 32 31 24 22 25 24
264 270 278 279 270 268 274 135 155 114 103 243 257 267 264 261 238 177 176 184 203 204 187 184 190 190 193 192 192 196 209 225 227 216 212 205 200 179 159 155 152 146 141 141 142 147 153 148 144 143 141 143 147 151 158 165 168 169 172 172 176 177 172 184 183 161 154 150 145 139 131 129 134 135 126 116 115 112 104 96 84 77 71 64 64 64 61 59 55 49 36 27 25 18 15 16 14
250 250 274 272 261 272 287 112 149 122 124 250 267 272 264 264 256 176 175 190 205 206 198 194 193 188 188 189 191 197 209 219 214 212 209 198 191 174 165 166 164 158 152 151 151 155 157 153 156 156 154 156 158 162 166 172 176 180 189 186 186 175 151 139 126 116 115 116 115 113 109 107 107 106 102 98 97 95 91 87 82 78 74 69 66 62 60 56 51 47 35 25 19 14 13 11 7
240 233 242 249 245 257 263 156 193 181 209 264 294 285 268 267 271 186 187 196 195 196 194 190 188 187 189 192 195 201 206 206 204 207 204 191 181 173 169 168 167 162 157 157 156 159 159 155 158 162 159 158 158 163 167 173 176 173 166 150 141 134 125 119 115 112 112 112 109 106 102 101 100 98 96 93 90 86 81 77 73 69 65 61 57 51 48 45 40 36 28 22 14 8 10 11 9
234 221 224 237 232 232 238 203 170 202 238 245 286 292 267 235 234 218 190 187 175 175 179 176 176 178 184 189 191 198 205 203 199 200 196 187 178 172 171 170 168 162 159 160 160 163 166 163 165 162 157 159 161 164 167 168 160 146 137 132 129 124 120 118 116 113 112 110 106 103 100 97 94 91 88 83 79 75 71 67 62 58 54 49 43 37 36 34 30 26 21 16 12 11 12 11 8
245 224 215 219 231 247 258 258 107 345 280 210 174 269 267 225 224 214 169 165 176 175 185 191 184 181 184 185 185 186 191 196 200 199 193 185 178 172 170 171 170 166 165 167 167 169 170 166 165 162 160 162 162 158 155 150 143 137 133 131 129 124 121 120 117 115 114 110 104 101 97 94 89 84 81 77 73 68 63 60 54 48 44 38 34 30 27 26 21 18 16 13 11 12 11 5 7
251 251 226 204 217 245 275 296 288 234 273 222 151 223 271 306 269 206 168 187 199 183 198 206 200 199 198 195 196 193 187 187 192 195 191 184 177 172 171 172 170 169 170 172 173 172 169 166 165 163 160 157 153 146 142 141 138 135 134 130 127 125 124 121 118 115 113 108 103 101 97 93 87 81 78 73 67 62 55 50 43 37 33 28 26 21 17 17 15 14 12 10 9 8 3 2 7
238 280 358 129 185 227 236 260 255 236 294 281 175 202 274 285 264 176 155 173 198 205 212 209 202 202 204 203 203 202 196 192 190 191 189 184 177 173 172 172 170 172 174 174 175 174 169 167 165 160 156 150 145 138 135 136 134 133 133 130 128 128 126 122 120 117 112 109 108 103 99 94 88 81 75 68 61 55 46 40 34 28 23 20 16 12 11 11 9 8 6 4 4 3 2 2 3
236 245 52 88 110 238 221 229 251 277 309 258 194 173 268 268 215 144 149 171 207 218 212 208 201 196 198 199 198 200 200 199 198 193 186 182 179 176 174 172 171 174 175 175 175 173 170 167 161 156 151 145 139 134 134 135 134 134 134 135 134 132 128 125 124 121 116 115 112 106 101 95 88 79 70 63 55 47 39 33 27 20 16 14 11 9 8 6 3 2 2 1 1 1 2 2 1
184 139 79 72 77 54 26 222 223 281 259 230 193 177 222 267 218 149 171 202 216 220 208 201 196 192 193 191 189 193 195 197 198 192 185 182 181 177 174 173 173 174 175 175 175 173 169 164 159 153 148 144 140 139 140 138 137 139 139 143 144 139 136 132 129 126 122 121 116 110 104 94 87 77 66 58 47 40 33 27 22 17 16 14 12 10 7 6 4 3 3 2 2 2 2 3 2
149 135 90 79 76 67 40 250 145 266 256 213 194 198 210 265 222 163 193 215 205 203 187 183 186 187 189 188 186 187 188 189 190 188 186 185 182 177 175 175 175 176 176 175 174 171 168 163 158 153 149 148 145 143 145 143 142 146 147 150 152 147 144 141 138 134 129 127 122 114 107 97 88 76 64 53 41 35 28 21 18 15 13 11 8 7 6 5 5 4 4 2 360 1 1 0 0
138 128 109 106 8 58 34 270 177 236 255 208 193 202 208 237 237 179 204 213 197 188 175 173 178 182 184 184 185 185 185 185 184 186 187 185 182 177 176 176 176 176 174 174 173 170 167 163 159 156 153 153 152 151 152 152 151 155 157 157 156 153 150 148 147 142 136 134 129 119 111 100 86 71 58 45 35 28 21 16 14 11 8 7 5 5 5 4 3 1 360 358 357 357 356 354 353
157 133 124 131 196 93 222 212 195 231 254 243 193 200 219 236 243 237 240 240 193 175 173 175 175 178 180 180 182 183 185 184 183 187 188 184 181 179 177 176 175 175 173 173 172 170 168 164 162 162 160 160 161 160 160 161 161 163 164 163 162 160 156 155 153 148 144 140 133 123 109 92 74 61 46 32 25 20 14 10 8 5 3 3 2 2 1 360 358 356 355 354 353 351 349 348 346
185 160 152 168 179 221 235 210 225 237 245 289 236 175 256 278 264 246 238 65 39 53 151 175 174 174 175 176 178 180 184 186 186 189 188 184 182 180 179 177 175 175 174 174 173 172 169 167 166 168 168 168 169 168 168 168 168 168 168 167 167 166 162 160 159 154 150 144 134 120 98 79 57 40 27 18 15 11 6 3 1 0 360 359 358 357 356 354 351 349 348 346 345 344 343 342 341
196 179 176 191 178 200 222 203 234 245 253 304 306 138 196 210 264 260 77 73 66 74 122 155 161 166 170 171 174 179 184 187 189 190 188 185 183 182 180 178 177 176 175 176 175 174 173 172 172 174 175 176 176 176 175 174 173 172 172 172 171 170 168 167 164 158 156 148 138 131 105 77 35 20 14 10 8 4 360 358 356 355 354 354 352 351 348 346 343 341 339 337 336 335 334 334 334
210 175 193 217 197 207 241 209 205 184 346 284 224 231 225 192 185 114 81 64 62 89 122 137 146 159 165 168 174 180 184 187 190 190 188 186 185 185 183 180 179 178 178 179 179 179 178 178 178 180 183 184 182 181 180 179 180 178 177 177 175 175 175 176 173 168 167 166 167 175 175 123 19 10 9 6 3 359 355 352 351 350 350 349 347 345 341 338 336 333 331 330 329 328 328 330 330
188 175 200 205 138 180 241 262 74 113 273 255 179 246 283 270 283 164 127 91 55 103 132 136 147 158 164 171 177 182 185 188 191 191 188 187 186 186 185 182 181 181 182 184 184 183 183 184 185 185 188 188 186 185 184 185 186 184 181 181 182 184 184 185 186 185 184 187 189 191 197 243 4 3 3 2 357 352 349 347 346 346 347 346 343 340 336 333 330 327 326 325 325 325 326 328 329
137 182 193 132 60 36 195 270 337 192 255 256 174 214 229 197 240 190 146 157 179 211 162 138 147 161 169 178 182 184 186 188 190 191 190 189 189 188 187 185 185 186 188 188 188 188 188 190 192 192 193 192 190 189 190 191 191 190 190 190 190 191 191 193 195 195 196 197 199 200 209 282 358 2 359 354 347 344 343 343 345 345 345 343 340 337 333 330 327 326 325 325 325 326 326 329 328
109 205 221 114 149 216 152 207 248 208 241 271 213 209 207 203 210 174 183 196 185 186 183 159 161 171 178 183 185 186 186 188 190 191 192 192 192 191 189 188 189 191 193 192 192 192 192 193 196 198 198 196 195 195 195 194 195 197 198 197 196 196 197 200 199 200 203 202 203 205 205 251 356 354 345 339 335 339 343 346 347 347 346 343 340 338 334 332 329 328 327 326 326 326 326 327 327
45 339 295 113 156 196 165 186 233 200 235 269 259 219 220 217 195 176 193 200 180 174 185 187 180 180 183 185 186 187 188 191 193 193 194 195 195 195 193 193 195 196 196 196 195 196 195 197 198 198 199 198 199 200 199 199 200 202 202 200 199 200 200 202 203 203 204 201 199 197 193 214 312 324 322 326 333 342 347 349 349 347 345 343 341 339 336 334 332 329 328 327 326 326 326 327 328
185 210 215 195 175 119 113 237 209 195 237 257 261 266 254 237 196 186 193 191 177 177 184 189 184 184 187 188 188 189 189 192 195 196 196 197 198 198 197 198 199 199 199 199 199 199 199 201 201 201 201 201 202 202 203 205 205 204 204 204 203 202 202 204 205 203 201 198 196 193 196 225 277 300 313 328 338 347 348 347 347 343 342 340 338 338 336 333 331 329 328 327 326 326 326 326 327
193 198 192 195 190 160 215 244 205 198 233 214 227 264 258 255 324 239 196 184 180 183 180 178 182 184 187 191 192 192 192 194 197 198 198 199 201 201 200 201 202 202 202 202 202 202 202 204 204 204 205 205 206 206 206 207 207 205 206 206 205 205 206 207 206 203 200 198 199 199 206 231 273 296 317 335 342 347 346 342 340 337 335 335 335 335 334 332 331 329 327 327 326 326 325 325 325